• In Uzbekistan
  • List of Countries
  • For 7 days
  • Water Temperature
  • Satellite Maps
  • Weather Map
  • Weather Widgets
  • user-avatar
    Login

    Hourly Weather Wlora

    Today, 24 October, Wednesday

    Time Temperature Precipitation Wind Pressure Humidity
    00:00 +17°C° 0 mm 5 mps 760 mmHg 61%
    01:00 +16°C° 0 mm 5 mps 759 mmHg 63%
    02:00 +16°C° 0 mm 5 mps 759 mmHg 64%
    03:00 +15°C° 0 mm 5 mps 759 mmHg 64%
    04:00 +15°C° 0 mm 5 mps 759 mmHg 65%
    05:00 +15°C° 0 mm 5 mps 759 mmHg 65%
    06:00 +16°C° 0 mm 5 mps 759 mmHg 64%
    07:00 +16°C° 0 mm 5 mps 759 mmHg 64%
    08:00 +17°C° 0 mm 5 mps 758 mmHg 57%
    09:00 +20°C° 0 mm 6 mps 758 mmHg 51%
    10:00 +21°C° 0 mm 6 mps 758 mmHg 44%
    11:00 +22°C° 0 mm 6 mps 758 mmHg 43%
    12:00 +22°C° 0 mm 7 mps 758 mmHg 41%
    13:00 +23°C° 0 mm 7 mps 757 mmHg 40%
    14:00 +22°C° 0 mm 7 mps 757 mmHg 42%
    15:00 +22°C° 0 mm 7 mps 757 mmHg 45%
    16:00 +21°C° 0 mm 7 mps 756 mmHg 47%
    17:00 +20°C° 0 mm 7 mps 757 mmHg 53%
    18:00 +18°C° 0 mm 7 mps 757 mmHg 58%
    19:00 +16°C° 0 mm 7 mps 757 mmHg 63%
    20:00 +16°C° 0 mm 7 mps 757 mmHg 64%
    21:00 +16°C° 0 mm 6 mps 758 mmHg 65%
    22:00 +16°C° 0 mm 6 mps 758 mmHg 67%
    23:00 +15°C° 0 mm 7 mps 758 mmHg 73%

    Tomorrow, 25 October, Thursday

    Time Temperature Precipitation Wind Pressure Humidity
    00:00 +15°C° 0 mm 7 mps 759 mmHg 78%
    01:00 +15°C° 0 mm 8 mps 759 mmHg 84%
    02:00 +15°C° 0 mm 9 mps 759 mmHg 86%
    03:00 +14°C° 0 mm 10 mps 760 mmHg 87%
    04:00 +14°C° 0 mm 10 mps 760 mmHg 88%
    05:00 +14°C° 0 mm 10 mps 761 mmHg 84%
    06:00 +13°C° 0 mm 10 mps 761 mmHg 80%
    07:00 +13°C° 0 mm 9 mps 762 mmHg 76%
    08:00 +16°C° 0 mm 9 mps 762 mmHg 65%
    09:00 +17°C° 0 mm 8 mps 763 mmHg 54%
    10:00 +20°C° 0 mm 8 mps 763 mmHg 43%
    11:00 +21°C° 0 mm 8 mps 763 mmHg 38%
    12:00 +22°C° 0 mm 8 mps 763 mmHg 34%
    13:00 +22°C° 0 mm 8 mps 763 mmHg 30%
    14:00 +22°C° 0 mm 7 mps 763 mmHg 32%
    15:00 +21°C° 0 mm 7 mps 762 mmHg 34%
    16:00 +20°C° 0 mm 7 mps 762 mmHg 36%
    17:00 +19°C° 0 mm 6 mps 763 mmHg 37%
    18:00 +17°C° 0 mm 6 mps 763 mmHg 38%
    19:00 +15°C° 0 mm 5 mps 763 mmHg 39%
    20:00 +15°C° 0 mm 4 mps 763 mmHg 38%
    21:00 +15°C° 0 mm 4 mps 763 mmHg 37%
    22:00 +16°C° 0 mm 3 mps 763 mmHg 36%
    23:00 +16°C° 0 mm 3 mps 763 mmHg 35%

    Day after tomorrow, 26 October, Friday

    Time Temperature Precipitation Wind Pressure Humidity
    00:00 +17°C° 0 mm 2 mps 763 mmHg 35%
    01:00 +17°C° 0 mm 2 mps 763 mmHg 34%
    02:00 +17°C° 0 mm 2 mps 763 mmHg 35%
    03:00 +18°C° 0 mm 1 mps 763 mmHg 36%
    04:00 +18°C° 0 mm 1 mps 763 mmHg 37%
    05:00 +17°C° 0 mm 2 mps 763 mmHg 40%
    06:00 +17°C° 0 mm 2 mps 763 mmHg 42%
    07:00 +17°C° 0 mm 3 mps 763 mmHg 45%
    08:00 +19°C° 0 mm 4 mps 763 mmHg 42%
    09:00 +21°C° 0 mm 4 mps 764 mmHg 40%
    10:00 +23°C° 0 mm 5 mps 764 mmHg 37%
    11:00 +23°C° 0 mm 6 mps 763 mmHg 38%
    12:00 +24°C° 0 mm 6 mps 763 mmHg 38%
    13:00 +24°C° 0 mm 7 mps 762 mmHg 39%
    14:00 +24°C° 0 mm 7 mps 762 mmHg 44%
    15:00 +23°C° 0 mm 7 mps 762 mmHg 49%
    16:00 +23°C° 0 mm 7 mps 762 mmHg 54%
    17:00 +21°C° 0 mm 7 mps 763 mmHg 60%
    18:00 +20°C° 0 mm 7 mps 763 mmHg 65%
    19:00 +18°C° 0 mm 7 mps 763 mmHg 71%
    20:00 +18°C° 0 mm 7 mps 763 mmHg 75%
    21:00 +18°C° 0 mm 7 mps 763 mmHg 78%
    22:00 +17°C° 0 mm 7 mps 763 mmHg 82%
    23:00 +17°C° 0 mm 7 mps 763 mmHg 84%

    27 October, Saturday

    Time Temperature Precipitation Wind Pressure Humidity
    00:00 +17°C° 0 mm 7 mps 763 mmHg 86%
    01:00 +17°C° 0 mm 7 mps 763 mmHg 87%
    02:00 +17°C° 0 mm 7 mps 763 mmHg 88%
    03:00 +17°C° 0 mm 7 mps 763 mmHg 88%
    04:00 +17°C° 0 mm 7 mps 762 mmHg 88%
    05:00 +17°C° 0 mm 7 mps 762 mmHg 87%
    06:00 +17°C° 0 mm 8 mps 763 mmHg 85%
    07:00 +18°C° 0 mm 8 mps 763 mmHg 84%
    08:00 +20°C° 0 mm 8 mps 763 mmHg 78%
    09:00 +22°C° 0 mm 8 mps 763 mmHg 72%
    10:00 +24°C° 0 mm 9 mps 763 mmHg 66%
    11:00 +24°C° 0 mm 9 mps 762 mmHg 65%
    12:00 +24°C° 0 mm 9 mps 762 mmHg 65%
    13:00 +24°C° 0 mm 9 mps 762 mmHg 65%
    14:00 +24°C° 0.1 mm 9 mps 762 mmHg 69%
    15:00 +23°C° 0.1 mm 9 mps 761 mmHg 72%
    16:00 +23°C° 0.1 mm 9 mps 761 mmHg 75%
    17:00 +22°C° 0 mm 9 mps 761 mmHg 80%
    18:00 +21°C° 0 mm 9 mps 762 mmHg 84%
    19:00 +19°C° 0 mm 9 mps 762 mmHg 88%
    20:00 +19°C° 0 mm 9 mps 762 mmHg 89%
    21:00 +19°C° 0 mm 9 mps 762 mmHg 90%
    22:00 +18°C° 0 mm 9 mps 762 mmHg 90%
    23:00 +18°C° 0 mm 9 mps 762 mmHg 91%

    28 October, Sunday

    Time Temperature Precipitation Wind Pressure Humidity
    00:00 +18°C° 0 mm 9 mps 762 mmHg 91%
    01:00 +18°C° 0 mm 9 mps 762 mmHg 91%
    02:00 +18°C° 0 mm 9 mps 762 mmHg 91%
    03:00 +18°C° 0 mm 9 mps 762 mmHg 91%
    04:00 +17°C° 0 mm 8 mps 762 mmHg 91%
    05:00 +17°C° 0 mm 9 mps 762 mmHg 89%
    06:00 +18°C° 0 mm 9 mps 762 mmHg 88%
    07:00 +18°C° 0 mm 9 mps 762 mmHg 86%
    08:00 +19°C° 0 mm 10 mps 762 mmHg 77%
    09:00 +22°C° 0 mm 10 mps 762 mmHg 68%
    10:00 +24°C° 0 mm 11 mps 761 mmHg 59%
    11:00 +24°C° 0 mm 11 mps 761 mmHg 56%
    12:00 +24°C° 0 mm 11 mps 761 mmHg 54%
    13:00 +26°C° 0 mm 11 mps 760 mmHg 51%
    14:00 +24°C° 0 mm 11 mps 760 mmHg 55%
    15:00 +23°C° 0 mm 11 mps 760 mmHg 59%
    16:00 +23°C° 0 mm 11 mps 760 mmHg 63%
    17:00 +22°C° 0 mm 11 mps 760 mmHg 67%
    18:00 +21°C° 0 mm 11 mps 760 mmHg 71%
    19:00 +19°C° 0 mm 11 mps 760 mmHg 74%
    20:00 +19°C° 0 mm 11 mps 761 mmHg 69%
    21:00 +19°C° 0 mm 11 mps 761 mmHg 63%
    22:00 +19°C° 0 mm 11 mps 761 mmHg 57%
    23:00 +19°C° 0 mm 11 mps 761 mmHg 54%

    29 October, Monday

    Time Temperature Precipitation Wind Pressure Humidity
    00:00 +19°C° 0 mm 11 mps 760 mmHg 50%
    01:00 +19°C° 0 mm 11 mps 760 mmHg 47%
    02:00 +19°C° 0 mm 11 mps 760 mmHg 47%
    03:00 +18°C° 0 mm 11 mps 760 mmHg 47%
    04:00 +18°C° 0 mm 11 mps 760 mmHg 47%
    05:00 +19°C° 0 mm 12 mps 760 mmHg 47%
    06:00 +19°C° 0 mm 12 mps 760 mmHg 47%
    07:00 +19°C° 0 mm 12 mps 760 mmHg 47%
    08:00 +21°C° 0.2 mm 12 mps 760 mmHg 46%
    09:00 +22°C° 0.2 mm 12 mps 760 mmHg 46%
    10:00 +23°C° 0.2 mm 12 mps 760 mmHg 46%
    11:00 +24°C° 0 mm 12 mps 760 mmHg 45%
    12:00 +26°C° 0 mm 12 mps 760 mmHg 43%
    13:00 +27°C° 0 mm 12 mps 759 mmHg 42%
    14:00 +26°C° 0.1 mm 12 mps 759 mmHg 45%
    15:00 +24°C° 0.1 mm 12 mps 759 mmHg 48%
    16:00 +24°C° 0.1 mm 12 mps 759 mmHg 51%
    17:00 +23°C° 0.1 mm 12 mps 759 mmHg 51%
    18:00 +23°C° 0.1 mm 12 mps 759 mmHg 51%
    19:00 +22°C° 0.1 mm 12 mps 760 mmHg 51%
    20:00 +22°C° 0.1 mm 12 mps 760 mmHg 52%
    21:00 +22°C° 0.1 mm 11 mps 760 mmHg 53%
    22:00 +22°C° 0.1 mm 11 mps 760 mmHg 54%
    23:00 +22°C° 0 mm 11 mps 759 mmHg 55%

    30 October, Tuesday

    Time Temperature Precipitation Wind Pressure Humidity
    00:00 +22°C° 0 mm 11 mps 759 mmHg 55%
    01:00 +21°C° 0 mm 11 mps 759 mmHg 56%
    02:00 +21°C° 0.6 mm 11 mps 759 mmHg 57%
    03:00 +21°C° 0.6 mm 10 mps 758 mmHg 58%
    04:00 +19°C° 0.6 mm 9 mps 758 mmHg 59%
    05:00 +21°C° 1.1 mm 10 mps 758 mmHg 58%
    06:00 +21°C° 1.1 mm 11 mps 758 mmHg 57%
    07:00 +21°C° 1.1 mm 12 mps 758 mmHg 55%
    08:00 +21°C° 0.8 mm 12 mps 758 mmHg 53%
    09:00 +22°C° 0.8 mm 12 mps 757 mmHg 51%
    10:00 +22°C° 0.8 mm 12 mps 757 mmHg 49%
    11:00 +22°C° 1 mm 13 mps 757 mmHg 54%
    12:00 +23°C° 1 mm 14 mps 757 mmHg 58%
    13:00 +23°C° 1 mm 15 mps 757 mmHg 63%
    14:00 +22°C° 2.4 mm 14 mps 757 mmHg 67%
    15:00 +22°C° 2.4 mm 13 mps 757 mmHg 72%
    16:00 +22°C° 2.4 mm 12 mps 757 mmHg 76%
    17:00 +21°C° 1.9 mm 10 mps 758 mmHg 81%
    18:00 +21°C° 1.9 mm 8 mps 758 mmHg 86%
    19:00 +20°C° 1.9 mm 6 mps 759 mmHg 91%
    20:00 +20°C° 0.3 mm 5 mps 759 mmHg 90%
    21:00 +20°C° 0.3 mm 4 mps 760 mmHg 90%
    22:00 +20°C° 0.3 mm 3 mps 760 mmHg 89%
    23:00 +19°C° 0 mm 3 mps 760 mmHg 88%
    Show more